Change the Weather History Date:

Sunday, November 25, 2012

  Actual Average Record
Temperature  
Mean Temperature 26 °F -  
Max Temperature 29 °F 37 °F 62 °F (2001)
Min Temperature 23 °F 26 °F 8 °F (2013)
Degree Days  
Heating Degree Days 39    
Moisture  
Dew Point 14 °F    
Average Humidity 59    
Maximum Humidity 74    
Minimum Humidity 43    
Precipitation  
Precipitation 0.00 in - - ()
Sea Level Pressure  
Sea Level Pressure 29.75 in    
Wind  
Wind Speed 15 mph ()    
Max Wind Speed 22 mph    
Max Gust Speed 33 mph    
Visibility 15.0 miles    
Events Snow    
Averages and records for this station are not official NWS values.
T = Trace of Precipitation, MM = Missing Value Source: Averaged Metar Reports

Daily Weather History Graph

Daily Weather History Graph

Search for Another Location

Airport or City:

Trip Planner

Search our weather history database for the weather conditions in past years. The results will help you decide how hot, cold, wet, or windy it might be!

Date:

Astronomy

Nov. 25, 2012 Rise Set
Actual Time 7:07 AM EST 4:16 PM EST
Civil Twilight 6:34 AM EST 4:49 PM EST
Nautical Twilight 5:58 AM EST 5:25 PM EST
Astronomical Twilight 5:22 AM EST 6:01 PM EST
Moon 2:36 PM EST (11/25) 4:13 AM EST (11/25)
Length of Visible Light 10h 14m
Length of Day
9h 08m
Waxing Gibbous, 93% of the Moon is Illuminated
Nov 25
Waxing Gibbous
Nov 28
Full
Dec 6
Last Quarter
Dec 13
New
Dec 20
First Quarter

Hourly Weather History & Observations

Time (EST) Temp. Windchill Dew Point Humidity Pressure Visibility Wind Dir Wind Speed Gust Speed Precip Events Conditions
12:00 AM 26.6 °F 13.4 °F 15.8 °F 64% 29.68 in 15.0 mi West 18.4 mph 33.4 mph N/A   Mostly Cloudy
1:00 AM 27 °F - 15 °F 48% 29.69 in 15 mi West 20.7 mph - -   Partly Cloudy
1:00 AM 26.6 °F 14.3 °F 15.8 °F 64% 29.69 in 15.0 mi West 16.1 mph 31.1 mph N/A   Partly Cloudy
2:00 AM 26.6 °F 12.7 °F 15.8 °F 64% 29.71 in 15.0 mi West 20.7 mph 31.1 mph N/A   Partly Cloudy
3:00 AM 24.8 °F 11.9 °F 14.0 °F 64% 29.72 in 15.0 mi West 16.1 mph 27.6 mph N/A   Partly Cloudy
4:00 AM 24.8 °F 11.1 °F 15.8 °F 69% 29.73 in 15.0 mi West 18.4 mph 28.8 mph N/A   Partly Cloudy
5:00 AM 24.8 °F 10.7 °F 14.0 °F 64% 29.74 in 15.0 mi West 19.6 mph 32.2 mph N/A   Partly Cloudy
6:00 AM 24.8 °F 11.5 °F 14.0 °F 64% 29.74 in 15.0 mi West 17.3 mph 28.8 mph N/A   Partly Cloudy
7:00 AM 23 °F - 15 °F 60% 29.75 in 15 mi West 15.0 mph - -   Scattered Clouds
7:00 AM 23.0 °F 9.6 °F 15.8 °F 74% 29.75 in 15.0 mi West 16.1 mph - N/A   Partly Cloudy
8:00 AM 24.8 °F 12.4 °F 15.8 °F 69% 29.75 in 15.0 mi West 15.0 mph 25.3 mph N/A   Partly Cloudy
9:00 AM 24.8 °F 10.3 °F 15.8 °F 69% 29.76 in 15.0 mi West 20.7 mph - N/A   Scattered Clouds
10:00 AM 26.6 °F 13.1 °F 15.8 °F 64% 29.76 in 30.0 mi West 19.6 mph 26.5 mph N/A   Mostly Cloudy
11:00 AM 26.6 °F 12.4 °F 14.0 °F 59% 29.75 in 30.0 mi West 21.9 mph 31.1 mph N/A Snow Light Snow Showers
12:00 PM 28.4 °F 15.1 °F 14.0 °F 55% 29.73 in 30.0 mi West 20.7 mph 27.6 mph N/A   Overcast
1:00 PM 28 °F - 14 °F 43% 29.72 in 28 mi West 20.7 mph - -   Overcast
1:00 PM 28.4 °F 15.4 °F 14.0 °F 55% 29.72 in 30.0 mi West 19.6 mph 26.5 mph N/A   Overcast
2:00 PM 28.4 °F 15.8 °F 14.0 °F 55% 29.73 in 30.0 mi West 18.4 mph 24.2 mph N/A   Mostly Cloudy
3:00 PM 28.4 °F 16.2 °F 12.2 °F 51% 29.73 in 30.0 mi WSW 17.3 mph - N/A   Mostly Cloudy
4:00 PM 28.4 °F 17.0 °F 12.2 °F 51% 29.74 in 30.0 mi West 15.0 mph - N/A   Mostly Cloudy
5:00 PM 26.6 °F 14.7 °F 10.4 °F 51% 29.75 in 15.0 mi WSW 15.0 mph - N/A   Partly Cloudy
6:00 PM 26.6 °F 15.7 °F 12.2 °F 55% 29.77 in 15.0 mi WSW 12.7 mph 20.7 mph N/A   Partly Cloudy
7:00 PM 25 °F - 12 °F 45% 29.78 in 15 mi West 13.8 mph - -   Clear
7:00 PM 24.8 °F 12.9 °F 12.2 °F 59% 29.78 in 15.0 mi West 13.8 mph - N/A   Partly Cloudy
8:00 PM 24.8 °F 14.6 °F 12.2 °F 59% 29.79 in 15.0 mi West 10.4 mph - N/A   Mostly Cloudy
9:00 PM 26.6 °F 17.5 °F 14.0 °F 59% 29.80 in 15.0 mi West 9.2 mph - N/A   Mostly Cloudy
10:00 PM 24.8 °F 16.1 °F 14.0 °F 64% 29.81 in 15.0 mi West 8.1 mph - N/A   Mostly Cloudy
11:00 PM 24.8 °F 15.3 °F 14.0 °F 64% 29.81 in 15.0 mi WNW 9.2 mph - N/A   Mostly Cloudy